SBI5157 UNNT-UWSG

Flight info

Callsign SBI5157
Flight time 3h 24m
Altitude 36000
Route OGAMA1K OGAMA A308 OSNAB G825 DORON A487 BENAK L158 ABALI T763 GITEK T764 TIBDO TIBDO1G
Aircraft B738/M-SDE2E3FGHIRWXY/LB1

Departure

Time 2026-05-07 08:29
Airport Novosibirsk Tolmachevo Airport (UNNT)

Arrival

Time 2026-05-07 11:53
Airport Gagarin International Airport (UWSG)
Time Latitude Longitude Altitude Speed Heading
2026-05-07 08:07 55.01023 82.66675 372 ft 0 kts 171°
2026-05-07 08:21 55.01035 82.66671 395 ft 2 kts 170°
2026-05-07 08:21 55.01051 82.66666 372 ft 2 kts 170°
2026-05-07 08:21 55.01067 82.66662 372 ft 2 kts 178°
2026-05-07 08:21 55.01083 82.66666 372 ft 2 kts 216°
2026-05-07 08:22 55.01093 82.66689 372 ft 2 kts 254°
2026-05-07 08:22 55.01097 82.66716 372 ft 2 kts 261°
2026-05-07 08:22 55.01098 82.66731 372 ft 0 kts 260°
2026-05-07 08:25 55.01097 82.66726 372 ft 0 kts 260°
2026-05-07 08:26 55.01136 82.66654 372 ft 10 kts 349°
2026-05-07 08:26 55.01173 82.66643 372 ft 12 kts 351°
2026-05-07 08:26 55.01211 82.66633 372 ft 11 kts 351°
2026-05-07 08:27 55.01301 82.66610 372 ft 15 kts 351°
2026-05-07 08:27 55.01383 82.66570 373 ft 7 kts 297°
2026-05-07 08:27 55.01375 82.66508 373 ft 0 kts 260°
2026-05-07 08:28 55.01373 82.66486 373 ft 8 kts 261°
2026-05-07 08:28 55.01318 82.65893 372 ft 90 kts 261°
2026-05-07 08:28 55.01182 82.64417 374 ft 157 kts 260°
2026-05-07 08:28 55.00992 82.62325 753 ft 188 kts 261°
2026-05-07 08:29 55.00801 82.59988 1597 ft 198 kts 261°
2026-05-07 08:29 55.00603 82.57534 2326 ft 208 kts 261°
2026-05-07 08:29 55.00385 82.54995 2848 ft 218 kts 261°
2026-05-07 08:29 55.00336 82.52233 3088 ft 245 kts 282°
2026-05-07 08:30 55.01223 82.49629 3589 ft 260 kts 313°
2026-05-07 08:30 55.02572 82.47480 4461 ft 262 kts 318°
2026-05-07 08:30 55.03964 82.45446 5270 ft 265 kts 319°
2026-05-07 08:30 55.05369 82.43379 5785 ft 265 kts 318°
2026-05-07 08:31 55.06780 82.41259 6081 ft 270 kts 318°
2026-05-07 08:31 55.08193 82.39082 6839 ft 272 kts 317°
2026-05-07 08:31 55.09590 82.36900 7654 ft 272 kts 317°
2026-05-07 08:31 55.11010 82.34663 8426 ft 275 kts 317°
2026-05-07 08:32 55.12422 82.32422 9198 ft 278 kts 316°
2026-05-07 08:32 55.13870 82.30111 9931 ft 281 kts 316°
2026-05-07 08:32 55.15309 82.27809 10649 ft 283 kts 316°
2026-05-07 08:32 55.16773 82.25462 11375 ft 285 kts 316°
2026-05-07 08:33 55.18229 82.23123 12110 ft 287 kts 316°
2026-05-07 08:33 55.19705 82.20748 12855 ft 290 kts 316°
2026-05-07 08:33 55.21186 82.18311 13594 ft 292 kts 310°
2026-05-07 08:33 55.22224 82.15404 14271 ft 292 kts 293°
2026-05-07 08:34 55.23045 82.12126 14978 ft 295 kts 292°
2026-05-07 08:34 55.23862 82.08762 15457 ft 307 kts 292°
2026-05-07 08:34 55.24713 82.05236 15621 ft 323 kts 292°
2026-05-07 08:34 55.25610 82.01536 16075 ft 333 kts 292°
2026-05-07 08:35 55.26529 81.97762 16777 ft 336 kts 292°
2026-05-07 08:35 55.27444 81.94016 17495 ft 338 kts 292°
2026-05-07 08:35 55.28379 81.90190 18191 ft 342 kts 292°
2026-05-07 08:35 55.29325 81.86318 18795 ft 346 kts 292°
2026-05-07 08:36 55.30265 81.82469 19415 ft 348 kts 292°
2026-05-07 08:36 55.31215 81.78572 20026 ft 350 kts 292°
2026-05-07 08:36 55.32182 81.74596 20634 ft 353 kts 292°
2026-05-07 08:36 55.33152 81.70606 21215 ft 356 kts 292°
2026-05-07 08:37 55.34111 81.66651 21793 ft 358 kts 292°
2026-05-07 08:37 55.35097 81.62577 22375 ft 361 kts 292°
2026-05-07 08:37 55.36077 81.58525 22928 ft 364 kts 292°
2026-05-07 08:37 55.37078 81.54375 23499 ft 367 kts 292°
2026-05-07 08:38 55.38078 81.50222 23980 ft 369 kts 292°
2026-05-07 08:38 55.39070 81.46095 24486 ft 370 kts 292°
2026-05-07 08:38 55.40080 81.41898 25023 ft 370 kts 292°
2026-05-07 08:38 55.41074 81.37763 25503 ft 372 kts 292°
2026-05-07 08:39 55.42099 81.33492 25631 ft 383 kts 292°
2026-05-07 08:39 55.43155 81.29082 25720 ft 395 kts 292°
2026-05-07 08:39 55.44222 81.24619 25915 ft 402 kts 292°
2026-05-07 08:39 55.45312 81.20055 26332 ft 403 kts 292°
2026-05-07 08:40 55.46400 81.15483 26836 ft 402 kts 292°
2026-05-07 08:40 55.47360 81.10918 27276 ft 402 kts 286°
2026-05-07 08:40 55.48075 81.06120 27689 ft 403 kts 283°
2026-05-07 08:40 55.48705 81.01344 28063 ft 404 kts 283°
2026-05-07 08:41 55.49327 80.96485 28459 ft 405 kts 283°
2026-05-07 08:41 55.49955 80.91623 28858 ft 406 kts 283°
2026-05-07 08:41 55.50593 80.86775 29241 ft 407 kts 283°
2026-05-07 08:41 55.51248 80.81875 29611 ft 408 kts 283°
2026-05-07 08:42 55.51898 80.77049 30072 ft 406 kts 283°
2026-05-07 08:42 55.52554 80.72204 30615 ft 401 kts 283°
2026-05-07 08:42 55.53193 80.67487 31119 ft 397 kts 283°
2026-05-07 08:42 55.53827 80.62792 31535 ft 394 kts 283°
2026-05-07 08:43 55.54464 80.58070 31902 ft 393 kts 283°
2026-05-07 08:43 55.55092 80.53388 32306 ft 391 kts 283°
2026-05-07 08:43 55.55718 80.48708 32743 ft 388 kts 283°
2026-05-07 08:43 55.56333 80.44094 33161 ft 385 kts 283°
2026-05-07 08:44 55.56941 80.39525 33537 ft 384 kts 283°
2026-05-07 08:44 55.57553 80.34901 33907 ft 382 kts 283°
2026-05-07 08:44 55.58154 80.30353 34229 ft 381 kts 283°
2026-05-07 08:44 55.58757 80.25775 34429 ft 382 kts 283°
2026-05-07 08:45 55.59352 80.21239 34614 ft 384 kts 283°
2026-05-07 08:45 55.59958 80.16611 34800 ft 385 kts 283°
2026-05-07 08:45 55.60563 80.11970 35012 ft 385 kts 283°
2026-05-07 08:45 55.61158 80.07391 35176 ft 387 kts 283°
2026-05-07 08:46 55.61766 80.02713 35353 ft 389 kts 283°
2026-05-07 08:46 55.62371 79.98029 35550 ft 389 kts 282°
2026-05-07 08:46 55.62967 79.93400 35750 ft 390 kts 282°
2026-05-07 08:46 55.63467 79.88660 35934 ft 390 kts 276°
2026-05-07 08:47 55.63743 79.78985 36003 ft 394 kts 273°
2026-05-07 08:47 55.63947 79.69369 36003 ft 391 kts 273°
2026-05-07 08:48 55.64160 79.59757 36009 ft 388 kts 273°
2026-05-07 08:48 55.64374 79.50263 36010 ft 386 kts 273°
2026-05-07 08:49 55.64586 79.40744 36012 ft 386 kts 272°
2026-05-07 08:49 55.64790 79.31252 36011 ft 386 kts 272°
2026-05-07 08:50 55.64986 79.21767 36012 ft 387 kts 272°
2026-05-07 08:50 55.65178 79.12174 36006 ft 389 kts 272°
2026-05-07 08:51 55.65362 79.02573 36005 ft 391 kts 272°
2026-05-07 08:51 55.65538 78.92953 36002 ft 393 kts 272°
2026-05-07 08:52 55.65709 78.83233 36000 ft 395 kts 272°
2026-05-07 08:52 55.65872 78.73549 36002 ft 396 kts 272°
2026-05-07 08:53 55.66028 78.63767 35994 ft 396 kts 272°
2026-05-07 08:53 55.66176 78.54044 35996 ft 396 kts 271°
2026-05-07 08:54 55.66317 78.44254 35991 ft 396 kts 271°
2026-05-07 08:54 55.66450 78.34544 35992 ft 395 kts 271°
2026-05-07 08:55 55.66575 78.24805 35991 ft 394 kts 271°
2026-05-07 08:55 55.66694 78.15069 35991 ft 394 kts 271°
2026-05-07 08:56 55.66804 78.05380 35988 ft 393 kts 271°
2026-05-07 08:56 55.66910 77.95727 35988 ft 393 kts 271°
2026-05-07 08:57 55.67011 77.86071 35986 ft 393 kts 271°
2026-05-07 08:57 55.67105 77.76421 35982 ft 393 kts 271°
2026-05-07 08:58 55.67192 77.66689 35984 ft 393 kts 271°
2026-05-07 08:58 55.67270 77.57045 35982 ft 394 kts 271°
2026-05-07 08:59 55.67341 77.47317 35983 ft 394 kts 270°
2026-05-07 08:59 55.67395 77.39231 35980 ft 395 kts 270°
2026-05-07 09:00 55.67452 77.29466 35979 ft 395 kts 270°
2026-05-07 09:00 55.67502 77.19733 35979 ft 396 kts 270°
2026-05-07 09:01 55.67544 77.09932 35976 ft 397 kts 270°
2026-05-07 09:01 55.67578 77.00218 35973 ft 397 kts 270°
2026-05-07 09:02 55.67605 76.90390 35976 ft 397 kts 270°
2026-05-07 09:02 55.67624 76.80614 35975 ft 398 kts 270°
2026-05-07 09:03 55.67635 76.70830 35971 ft 398 kts 270°
2026-05-07 09:03 55.67638 76.61041 35972 ft 398 kts 269°
2026-05-07 09:04 55.67633 76.51232 35969 ft 398 kts 269°
2026-05-07 09:04 55.67621 76.41418 35966 ft 398 kts 269°
2026-05-07 09:05 55.67601 76.31617 35973 ft 397 kts 269°
2026-05-07 09:05 55.67573 76.21880 35973 ft 397 kts 269°
2026-05-07 09:06 55.67537 76.12085 35968 ft 397 kts 269°
2026-05-07 09:06 55.67494 76.02276 35972 ft 397 kts 269°
2026-05-07 09:07 55.67443 75.92533 35971 ft 397 kts 269°
2026-05-07 09:07 55.67384 75.82725 35970 ft 397 kts 269°
2026-05-07 09:08 55.67318 75.72938 35968 ft 397 kts 269°
2026-05-07 09:08 55.67245 75.63145 35970 ft 397 kts 268°
2026-05-07 09:09 55.67072 75.53339 35968 ft 397 kts 266°
2026-05-07 09:09 55.66752 75.43621 35967 ft 398 kts 266°
2026-05-07 09:10 55.66427 75.33829 35968 ft 398 kts 266°
2026-05-07 09:10 55.66114 75.24028 35967 ft 398 kts 266°
2026-05-07 09:11 55.65798 75.14229 35965 ft 398 kts 266°
2026-05-07 09:11 55.65476 75.04433 35961 ft 398 kts 266°
2026-05-07 09:12 55.65148 74.94711 35962 ft 398 kts 265°
2026-05-07 09:12 55.64809 74.84931 35963 ft 398 kts 265°
2026-05-07 09:13 55.64462 74.75141 35958 ft 397 kts 265°
2026-05-07 09:13 55.64108 74.65353 35957 ft 397 kts 265°
2026-05-07 09:14 55.63748 74.55600 35959 ft 397 kts 265°
2026-05-07 09:14 55.63382 74.45912 35960 ft 397 kts 265°
2026-05-07 09:15 55.63006 74.36142 35956 ft 397 kts 265°
2026-05-07 09:15 55.62623 74.26396 35958 ft 397 kts 265°
2026-05-07 09:16 55.62232 74.16637 35955 ft 397 kts 265°
2026-05-07 09:16 55.61834 74.06898 35955 ft 397 kts 264°
2026-05-07 09:17 55.61427 73.97147 35953 ft 397 kts 264°
2026-05-07 09:17 55.61015 73.87460 35950 ft 397 kts 264°
2026-05-07 09:18 55.60595 73.77716 35953 ft 397 kts 264°
2026-05-07 09:18 55.60166 73.67958 35951 ft 397 kts 264°
2026-05-07 09:19 55.60393 73.58243 35957 ft 399 kts 274°
2026-05-07 09:19 55.61055 73.48478 35946 ft 400 kts 274°
2026-05-07 09:20 55.61691 73.38681 35944 ft 400 kts 274°
2026-05-07 09:20 55.62302 73.28879 35946 ft 400 kts 274°
2026-05-07 09:21 55.62900 73.19139 35940 ft 401 kts 274°
2026-05-07 09:21 55.63444 73.09316 35934 ft 399 kts 269°
2026-05-07 09:22 55.63435 72.99466 35940 ft 399 kts 268°
2026-05-07 09:22 55.63367 72.89629 35937 ft 399 kts 268°
2026-05-07 09:23 55.63307 72.79866 35937 ft 399 kts 268°
2026-05-07 09:23 55.63250 72.70024 35943 ft 400 kts 268°
2026-05-07 09:24 55.63189 72.60163 35930 ft 400 kts 268°
2026-05-07 09:24 55.63122 72.50313 35941 ft 400 kts 268°
2026-05-07 09:25 55.63047 72.40492 35930 ft 401 kts 267°
2026-05-07 09:25 55.62963 72.30617 35925 ft 401 kts 267°
2026-05-07 09:26 55.62871 72.20740 35923 ft 401 kts 267°
2026-05-07 09:26 55.62772 72.10915 35922 ft 402 kts 267°
2026-05-07 09:27 55.62665 72.01024 35920 ft 402 kts 267°
2026-05-07 09:28 55.62488 71.86172 35915 ft 402 kts 267°
2026-05-07 09:28 55.62361 71.76277 35912 ft 402 kts 267°
2026-05-07 09:29 55.62225 71.66368 35912 ft 402 kts 267°
2026-05-07 09:29 55.62081 71.56453 35908 ft 403 kts 267°
2026-05-07 09:30 55.61930 71.46589 35910 ft 403 kts 267°
2026-05-07 09:30 55.61771 71.36680 35904 ft 403 kts 266°
2026-05-07 09:31 55.61605 71.26752 35901 ft 403 kts 266°
2026-05-07 09:31 55.61430 71.16829 35904 ft 403 kts 266°
2026-05-07 09:32 55.61250 71.06964 35899 ft 403 kts 266°
2026-05-07 09:32 55.61063 70.97034 35900 ft 404 kts 266°
2026-05-07 09:33 55.60868 70.87102 35896 ft 404 kts 266°
2026-05-07 09:33 55.60666 70.77210 35892 ft 404 kts 266°
2026-05-07 09:34 55.60454 70.67244 35892 ft 404 kts 266°
2026-05-07 09:34 55.60234 70.57280 35892 ft 405 kts 266°
2026-05-07 09:35 55.60006 70.47321 35889 ft 405 kts 266°
2026-05-07 09:35 55.59769 70.37334 35888 ft 406 kts 266°
2026-05-07 09:36 55.59527 70.27421 35886 ft 406 kts 266°
2026-05-07 09:36 55.59273 70.17420 35883 ft 407 kts 266°
2026-05-07 09:37 55.59012 70.07414 35882 ft 407 kts 266°
2026-05-07 09:37 55.58743 69.97425 35881 ft 407 kts 266°
2026-05-07 09:38 55.58466 69.87466 35878 ft 408 kts 266°
2026-05-07 09:38 55.58179 69.77429 35880 ft 408 kts 266°
2026-05-07 09:39 55.57884 69.67389 35881 ft 408 kts 266°
2026-05-07 09:39 55.57582 69.57394 35876 ft 409 kts 266°
2026-05-07 09:40 55.57269 69.47322 35880 ft 409 kts 266°
2026-05-07 09:40 55.56952 69.37328 35879 ft 410 kts 266°
2026-05-07 09:41 55.56624 69.27233 35880 ft 410 kts 266°
2026-05-07 09:41 55.56298 69.17217 35878 ft 410 kts 267°
2026-05-07 09:42 55.56159 69.07119 35877 ft 411 kts 268°
2026-05-07 09:42 55.56073 68.97016 35876 ft 411 kts 268°
2026-05-07 09:43 55.55959 68.86897 35874 ft 412 kts 268°
2026-05-07 09:43 55.55847 68.78471 35879 ft 412 kts 268°
2026-05-07 09:44 55.55699 68.68321 35876 ft 412 kts 268°
2026-05-07 09:44 55.55542 68.58188 35879 ft 413 kts 268°
2026-05-07 09:45 55.55378 68.48048 35876 ft 413 kts 268°
2026-05-07 09:45 55.55205 68.37955 35877 ft 413 kts 268°
2026-05-07 09:46 55.55024 68.27799 35881 ft 413 kts 268°
2026-05-07 09:46 55.54835 68.17650 35882 ft 413 kts 268°
2026-05-07 09:47 55.54638 68.07492 35884 ft 413 kts 268°
2026-05-07 09:47 55.53871 67.97461 35882 ft 413 kts 255°
2026-05-07 09:48 55.52257 67.87717 35885 ft 413 kts 254°
2026-05-07 09:48 55.50624 67.77985 35885 ft 414 kts 254°
2026-05-07 09:49 55.49006 67.68249 35890 ft 414 kts 254°
2026-05-07 09:49 55.47403 67.58566 35886 ft 414 kts 254°
2026-05-07 09:50 55.45783 67.48815 35887 ft 414 kts 254°
2026-05-07 09:50 55.44156 67.39075 35887 ft 414 kts 254°
2026-05-07 09:51 55.42530 67.29393 35887 ft 414 kts 254°
2026-05-07 09:51 55.40886 67.19658 35888 ft 414 kts 253°
2026-05-07 09:52 55.39233 67.09929 35889 ft 414 kts 253°
2026-05-07 09:52 55.37573 67.00211 35886 ft 415 kts 253°
2026-05-07 09:53 55.35906 66.90503 35883 ft 415 kts 253°
2026-05-07 09:53 55.34239 66.80847 35884 ft 415 kts 253°
2026-05-07 09:54 55.32553 66.71139 35881 ft 415 kts 253°
2026-05-07 09:54 55.30859 66.61431 35883 ft 415 kts 253°
2026-05-07 09:55 55.29169 66.51802 35885 ft 415 kts 253°
2026-05-07 09:55 55.27461 66.42120 35885 ft 415 kts 253°
2026-05-07 09:56 55.25747 66.32452 35884 ft 415 kts 253°
2026-05-07 09:56 55.24020 66.22769 35883 ft 416 kts 253°
2026-05-07 09:57 55.22288 66.13106 35880 ft 416 kts 252°
2026-05-07 09:57 55.20544 66.03426 35881 ft 416 kts 252°
2026-05-07 09:58 55.18806 65.93829 35880 ft 416 kts 252°
2026-05-07 09:58 55.17049 65.84173 35877 ft 416 kts 252°
2026-05-07 09:59 55.15346 65.74859 35880 ft 416 kts 252°
2026-05-07 09:59 55.13550 65.65231 35877 ft 416 kts 252°
2026-05-07 10:00 55.11718 65.55614 35882 ft 416 kts 251°
2026-05-07 10:00 55.09885 65.46021 35878 ft 417 kts 251°
2026-05-07 10:01 55.08060 65.36489 35878 ft 417 kts 251°
2026-05-07 10:01 55.06216 65.26902 35876 ft 417 kts 251°
2026-05-07 10:02 55.04362 65.17310 35878 ft 417 kts 251°
2026-05-07 10:02 55.02501 65.07729 35873 ft 417 kts 251°
2026-05-07 10:03 55.00634 64.98156 35880 ft 417 kts 251°
2026-05-07 10:03 54.98757 64.88588 35877 ft 417 kts 251°
2026-05-07 10:04 54.96875 64.79023 35880 ft 417 kts 251°
2026-05-07 10:04 54.95003 64.69536 35874 ft 417 kts 251°
2026-05-07 10:05 54.93110 64.60008 35878 ft 417 kts 251°
2026-05-07 10:05 54.91203 64.50468 35882 ft 416 kts 251°
2026-05-07 10:06 54.89291 64.40945 35888 ft 416 kts 251°
2026-05-07 10:06 54.87375 64.31441 35884 ft 417 kts 251°
2026-05-07 10:07 54.85453 64.21947 35882 ft 416 kts 250°
2026-05-07 10:07 54.83533 64.12513 35883 ft 417 kts 250°
2026-05-07 10:08 54.81595 64.03030 35883 ft 417 kts 250°
2026-05-07 10:08 54.79649 63.93559 35886 ft 417 kts 250°
2026-05-07 10:09 54.77696 63.84094 35882 ft 416 kts 250°
2026-05-07 10:09 54.75737 63.74648 35881 ft 416 kts 250°
2026-05-07 10:10 54.73785 63.65280 35883 ft 416 kts 250°
2026-05-07 10:10 54.71813 63.55859 35885 ft 416 kts 250°
2026-05-07 10:11 54.69834 63.46446 35883 ft 416 kts 250°
2026-05-07 10:11 54.67848 63.37042 35885 ft 416 kts 250°
2026-05-07 10:12 54.65859 63.27658 35883 ft 416 kts 250°
2026-05-07 10:12 54.63860 63.18280 35885 ft 416 kts 250°
2026-05-07 10:13 54.61861 63.08912 35886 ft 416 kts 250°
2026-05-07 10:13 54.59869 62.99603 35887 ft 416 kts 250°
2026-05-07 10:14 54.57857 62.90245 35885 ft 416 kts 250°
2026-05-07 10:14 54.55839 62.80899 35889 ft 415 kts 249°
2026-05-07 10:15 54.53829 62.71633 35883 ft 415 kts 249°
2026-05-07 10:15 54.51802 62.62330 35890 ft 415 kts 249°
2026-05-07 10:16 54.49769 62.53040 35888 ft 415 kts 249°
2026-05-07 10:16 54.47732 62.43767 35891 ft 414 kts 249°
2026-05-07 10:17 54.45688 62.34511 35894 ft 414 kts 249°
2026-05-07 10:17 54.44346 62.24893 35904 ft 414 kts 261°
2026-05-07 10:18 54.43514 62.15101 35893 ft 414 kts 261°
2026-05-07 10:18 54.42645 62.05369 35892 ft 414 kts 260°
2026-05-07 10:19 54.41738 61.95608 35890 ft 414 kts 260°
2026-05-07 10:19 54.40814 61.85842 35882 ft 414 kts 260°
2026-05-07 10:20 54.39883 61.76089 35888 ft 414 kts 260°
2026-05-07 10:20 54.38943 61.66319 35885 ft 415 kts 259°
2026-05-07 10:21 54.38002 61.56607 35883 ft 415 kts 259°
2026-05-07 10:21 54.37047 61.46828 35879 ft 415 kts 259°
2026-05-07 10:22 54.36083 61.37044 35882 ft 415 kts 259°
2026-05-07 10:22 54.35115 61.27316 35885 ft 416 kts 259°
2026-05-07 10:23 54.34133 61.17525 35882 ft 416 kts 259°
2026-05-07 10:23 54.33145 61.07754 35886 ft 416 kts 259°
2026-05-07 10:24 54.32149 60.97990 35887 ft 416 kts 259°
2026-05-07 10:24 54.31148 60.88253 35891 ft 416 kts 259°
2026-05-07 10:25 54.30141 60.78537 35892 ft 416 kts 259°
2026-05-07 10:25 54.29116 60.68743 35889 ft 416 kts 258°
2026-05-07 10:26 54.28261 60.60624 35893 ft 416 kts 258°
2026-05-07 10:26 54.27056 60.49272 35896 ft 417 kts 258°
2026-05-07 10:27 54.26185 60.41142 35897 ft 417 kts 258°
2026-05-07 10:27 54.25132 60.31376 35898 ft 417 kts 258°
2026-05-07 10:28 54.24075 60.21656 35902 ft 417 kts 258°
2026-05-07 10:28 54.23005 60.11883 35905 ft 418 kts 258°
2026-05-07 10:29 54.21928 60.02134 35906 ft 418 kts 258°
2026-05-07 10:29 54.20841 59.92362 35907 ft 418 kts 258°
2026-05-07 10:30 54.19198 59.77723 35909 ft 418 kts 258°
2026-05-07 10:30 54.18096 59.68021 35908 ft 418 kts 258°
2026-05-07 10:31 54.16977 59.58247 35906 ft 419 kts 257°
2026-05-07 10:31 54.15853 59.48493 35910 ft 419 kts 257°
2026-05-07 10:32 54.14720 59.38734 35911 ft 419 kts 257°
2026-05-07 10:32 54.13584 59.29017 35912 ft 419 kts 257°
2026-05-07 10:33 54.12433 59.19245 35910 ft 420 kts 257°
2026-05-07 10:33 54.11277 59.09494 35916 ft 420 kts 257°
2026-05-07 10:34 54.10108 58.99715 35914 ft 420 kts 257°
2026-05-07 10:34 54.08939 58.90006 35913 ft 420 kts 257°
2026-05-07 10:35 54.07757 58.80257 35920 ft 420 kts 257°
2026-05-07 10:35 54.06565 58.70496 35914 ft 421 kts 257°
2026-05-07 10:36 54.05366 58.60741 35915 ft 421 kts 257°
2026-05-07 10:36 54.04158 58.50974 35916 ft 422 kts 257°
2026-05-07 10:37 54.02948 58.41245 35913 ft 422 kts 257°
2026-05-07 10:37 54.01748 58.31475 35912 ft 422 kts 257°
2026-05-07 10:38 54.00544 58.21701 35911 ft 422 kts 257°
2026-05-07 10:38 53.99330 58.11931 35909 ft 423 kts 257°
2026-05-07 10:39 53.98115 58.02227 35905 ft 423 kts 257°
2026-05-07 10:39 53.96882 57.92455 35902 ft 423 kts 256°
2026-05-07 10:40 53.95641 57.82687 35901 ft 423 kts 256°
2026-05-07 10:40 53.94389 57.72896 35898 ft 423 kts 256°
2026-05-07 10:41 53.93138 57.63185 35903 ft 424 kts 256°
2026-05-07 10:41 53.91872 57.53421 35901 ft 424 kts 256°
2026-05-07 10:42 53.90598 57.43657 35900 ft 424 kts 256°
2026-05-07 10:42 53.89315 57.33882 35895 ft 424 kts 256°
2026-05-07 10:43 53.88020 57.24110 35898 ft 424 kts 256°
2026-05-07 10:43 53.86721 57.14408 35894 ft 425 kts 256°
2026-05-07 10:44 53.85406 57.04637 35894 ft 425 kts 256°
2026-05-07 10:44 53.84085 56.94874 35889 ft 425 kts 256°
2026-05-07 10:45 53.82754 56.85098 35890 ft 426 kts 256°
2026-05-07 10:45 53.81413 56.75329 35886 ft 426 kts 256°
2026-05-07 10:46 53.80070 56.65602 35883 ft 426 kts 256°
2026-05-07 10:46 53.78710 56.55809 35881 ft 427 kts 256°
2026-05-07 10:47 53.77343 56.46026 35878 ft 427 kts 256°
2026-05-07 10:47 53.75977 56.36305 35880 ft 428 kts 255°
2026-05-07 10:48 53.74592 56.26521 35874 ft 428 kts 255°
2026-05-07 10:48 53.73200 56.16743 35878 ft 428 kts 255°
2026-05-07 10:49 53.71800 56.06968 35877 ft 428 kts 255°
2026-05-07 10:49 53.70389 55.97186 35877 ft 428 kts 255°
2026-05-07 10:50 53.68983 55.87494 35876 ft 428 kts 255°
2026-05-07 10:50 53.67561 55.77738 35879 ft 428 kts 255°
2026-05-07 10:51 53.66128 55.67994 35873 ft 428 kts 255°
2026-05-07 10:51 53.64684 55.58248 35880 ft 427 kts 255°
2026-05-07 10:52 53.63234 55.48512 35874 ft 427 kts 255°
2026-05-07 10:52 53.61788 55.38853 35874 ft 427 kts 255°
2026-05-07 10:53 53.60328 55.29157 35875 ft 427 kts 255°
2026-05-07 10:53 53.58858 55.19454 35874 ft 427 kts 255°
2026-05-07 10:54 53.57381 55.09764 35873 ft 427 kts 255°
2026-05-07 10:54 53.55896 55.00077 35872 ft 427 kts 255°
2026-05-07 10:55 53.54412 54.90460 35878 ft 427 kts 255°
2026-05-07 10:55 53.52912 54.80792 35876 ft 427 kts 254°
2026-05-07 10:56 53.51401 54.71111 35873 ft 428 kts 254°
2026-05-07 10:56 53.49881 54.61428 35876 ft 428 kts 254°
2026-05-07 10:57 53.48352 54.51748 35870 ft 428 kts 254°
2026-05-07 10:57 53.46818 54.42092 35872 ft 428 kts 254°
2026-05-07 10:58 53.45287 54.32505 35865 ft 428 kts 254°
2026-05-07 10:58 53.43736 54.22853 35869 ft 428 kts 254°
2026-05-07 10:59 53.42180 54.13220 35865 ft 428 kts 254°
2026-05-07 10:59 53.40615 54.03591 35872 ft 428 kts 254°
2026-05-07 11:00 53.39043 53.93966 35865 ft 428 kts 254°
2026-05-07 11:00 53.37475 53.84415 35862 ft 428 kts 253°
2026-05-07 11:01 53.35870 53.74816 35861 ft 427 kts 252°
2026-05-07 11:01 53.34066 53.65318 35866 ft 427 kts 251°
2026-05-07 11:02 53.32208 53.55868 35862 ft 427 kts 251°
2026-05-07 11:02 53.30364 53.46431 35866 ft 427 kts 251°
2026-05-07 11:03 53.28540 53.37055 35866 ft 427 kts 251°
2026-05-07 11:03 53.26699 53.27609 35871 ft 426 kts 251°
2026-05-07 11:04 53.24856 53.18196 35874 ft 426 kts 251°
2026-05-07 11:04 53.23002 53.08773 35865 ft 426 kts 251°
2026-05-07 11:05 53.21145 52.99386 35867 ft 426 kts 251°
2026-05-07 11:05 53.19293 52.90066 35868 ft 425 kts 251°
2026-05-07 11:06 53.17428 52.80728 35868 ft 424 kts 251°
2026-05-07 11:06 53.15556 52.71396 35864 ft 423 kts 251°
2026-05-07 11:07 53.13683 52.62108 35866 ft 423 kts 251°
2026-05-07 11:07 53.11802 52.52820 35865 ft 423 kts 251°
2026-05-07 11:08 53.09915 52.43553 35877 ft 428 kts 251°
2026-05-07 11:08 53.07990 52.34136 35870 ft 431 kts 250°
2026-05-07 11:09 53.06055 52.24712 35861 ft 429 kts 250°
2026-05-07 11:09 53.04132 52.15394 35859 ft 423 kts 250°
2026-05-07 11:10 53.02226 52.06193 35867 ft 418 kts 250°
2026-05-07 11:10 53.00333 51.97111 35878 ft 420 kts 250°
2026-05-07 11:11 52.98399 51.87885 35882 ft 426 kts 250°
2026-05-07 11:11 52.96431 51.78540 35877 ft 431 kts 250°
2026-05-07 11:12 52.94774 51.70698 35881 ft 433 kts 250°
2026-05-07 11:12 52.92438 51.59689 35877 ft 436 kts 250°
2026-05-07 11:13 52.90761 51.51820 35864 ft 433 kts 250°
2026-05-07 11:13 52.88761 51.42475 35866 ft 425 kts 250°
2026-05-07 11:14 52.86786 51.33294 35882 ft 422 kts 250°
2026-05-07 11:14 52.84811 51.24148 35883 ft 421 kts 250°
2026-05-07 11:15 52.82826 51.15002 35885 ft 424 kts 250°
2026-05-07 11:15 52.80811 51.05758 35888 ft 430 kts 250°
2026-05-07 11:16 52.78778 50.96473 35883 ft 434 kts 250°
2026-05-07 11:16 52.76708 50.87058 35883 ft 437 kts 249°
2026-05-07 11:17 52.74627 50.77637 35870 ft 435 kts 249°
2026-05-07 11:17 52.72564 50.68337 35869 ft 427 kts 249°
2026-05-07 11:18 52.70533 50.59219 35884 ft 425 kts 249°
2026-05-07 11:18 52.68484 50.50076 35892 ft 424 kts 249°
2026-05-07 11:19 52.66421 50.40934 35887 ft 425 kts 249°
2026-05-07 11:19 52.64350 50.31790 35888 ft 427 kts 249°
2026-05-07 11:20 52.62278 50.22672 35886 ft 428 kts 249°
2026-05-07 11:20 52.60173 50.13450 35888 ft 430 kts 249°
2026-05-07 11:21 52.58071 50.04272 35890 ft 432 kts 249°
2026-05-07 11:21 52.55941 49.95023 35894 ft 433 kts 249°
2026-05-07 11:22 52.53799 49.85746 35891 ft 434 kts 249°
2026-05-07 11:22 52.51652 49.76480 35888 ft 435 kts 249°
2026-05-07 11:23 52.49493 49.67198 35894 ft 435 kts 249°
2026-05-07 11:23 52.47328 49.57934 35891 ft 435 kts 249°
2026-05-07 11:24 52.45156 49.48674 35893 ft 435 kts 249°
2026-05-07 11:24 52.42978 49.39432 35896 ft 434 kts 248°
2026-05-07 11:25 52.40811 49.30273 35896 ft 433 kts 248°
2026-05-07 11:25 52.38628 49.21080 35880 ft 433 kts 248°
2026-05-07 11:26 52.37522 49.16441 35398 ft 437 kts 248°
2026-05-07 11:26 52.36418 49.11822 35003 ft 432 kts 248°
2026-05-07 11:26 52.35324 49.07264 34545 ft 429 kts 248°
2026-05-07 11:26 52.34234 49.02733 34123 ft 426 kts 248°
2026-05-07 11:27 52.33151 48.98245 33676 ft 423 kts 248°
2026-05-07 11:27 52.32073 48.93781 33204 ft 420 kts 248°
2026-05-07 11:27 52.31003 48.89360 32775 ft 417 kts 248°
2026-05-07 11:27 52.29939 48.84967 32355 ft 413 kts 248°
2026-05-07 11:28 52.28883 48.80616 31945 ft 410 kts 248°
2026-05-07 11:28 52.27833 48.76300 31534 ft 407 kts 248°
2026-05-07 11:28 52.26788 48.72014 31147 ft 405 kts 248°
2026-05-07 11:28 52.25762 48.67814 30753 ft 402 kts 248°
2026-05-07 11:29 52.24727 48.63582 30375 ft 400 kts 248°
2026-05-07 11:29 52.23695 48.59374 29993 ft 398 kts 248°
2026-05-07 11:29 52.22666 48.55181 29548 ft 396 kts 248°
2026-05-07 11:29 52.21646 48.51036 29116 ft 393 kts 248°
2026-05-07 11:30 52.20668 48.46887 28679 ft 390 kts 251°
2026-05-07 11:30 52.19843 48.42683 28258 ft 387 kts 253°
2026-05-07 11:30 52.19092 48.38477 27854 ft 384 kts 255°
2026-05-07 11:30 52.18363 48.34290 27458 ft 382 kts 255°
2026-05-07 11:31 52.17645 48.30191 27071 ft 380 kts 255°
2026-05-07 11:31 52.16911 48.26066 26680 ft 378 kts 254°
2026-05-07 11:31 52.16171 48.21965 26278 ft 376 kts 254°
2026-05-07 11:31 52.15427 48.17888 25897 ft 374 kts 254°
2026-05-07 11:32 52.13940 48.09818 25134 ft 370 kts 254°
2026-05-07 11:32 52.13194 48.05796 24748 ft 369 kts 254°
2026-05-07 11:32 52.12458 48.01843 24349 ft 369 kts 254°
2026-05-07 11:33 52.11714 47.97850 23961 ft 368 kts 254°
2026-05-07 11:33 52.10968 47.93861 23561 ft 368 kts 254°
2026-05-07 11:33 52.10223 47.89881 23126 ft 367 kts 254°
2026-05-07 11:33 52.09479 47.85919 22716 ft 365 kts 254°
2026-05-07 11:34 52.08738 47.81981 22318 ft 363 kts 254°
2026-05-07 11:34 52.08001 47.78068 21930 ft 361 kts 254°
2026-05-07 11:34 52.07267 47.74182 21571 ft 358 kts 254°
2026-05-07 11:34 52.06535 47.70315 21181 ft 356 kts 254°
2026-05-07 11:35 52.05806 47.66471 20800 ft 354 kts 254°
2026-05-07 11:35 52.05143 47.62632 20388 ft 354 kts 258°
2026-05-07 11:35 52.04639 47.58764 19979 ft 353 kts 261°
2026-05-07 11:35 52.04188 47.54844 19621 ft 352 kts 261°
2026-05-07 11:36 52.03751 47.50941 19237 ft 351 kts 261°
2026-05-07 11:36 52.03307 47.47040 18867 ft 349 kts 261°
2026-05-07 11:36 52.02857 47.43162 18493 ft 348 kts 261°
2026-05-07 11:36 52.02401 47.39302 18097 ft 347 kts 261°
2026-05-07 11:37 52.01942 47.35468 17695 ft 345 kts 261°
2026-05-07 11:37 52.01484 47.31696 17325 ft 343 kts 261°
2026-05-07 11:37 52.01020 47.27896 16928 ft 342 kts 261°
2026-05-07 11:37 52.00556 47.24110 16562 ft 339 kts 261°
2026-05-07 11:38 52.00094 47.20361 16194 ft 337 kts 260°
2026-05-07 11:38 51.99634 47.16640 15842 ft 335 kts 261°
2026-05-07 11:38 51.99181 47.12982 15479 ft 333 kts 260°
2026-05-07 11:38 51.98724 47.09309 15135 ft 331 kts 260°
2026-05-07 11:39 51.98269 47.05658 14773 ft 329 kts 260°
2026-05-07 11:39 51.97813 47.02012 14417 ft 329 kts 260°
2026-05-07 11:39 51.97356 46.98371 14030 ft 329 kts 261°
2026-05-07 11:39 51.96898 46.94736 13683 ft 327 kts 261°
2026-05-07 11:40 51.96448 46.91164 13304 ft 326 kts 261°
2026-05-07 11:40 51.95993 46.87571 12921 ft 324 kts 261°
2026-05-07 11:40 51.95543 46.84005 12583 ft 321 kts 261°
2026-05-07 11:40 51.95093 46.80467 12210 ft 320 kts 261°
2026-05-07 11:41 51.94643 46.76936 11870 ft 319 kts 261°
2026-05-07 11:41 51.94193 46.73416 11515 ft 317 kts 260°
2026-05-07 11:41 51.93746 46.69922 11169 ft 316 kts 261°
2026-05-07 11:41 51.93300 46.66445 10826 ft 314 kts 261°
2026-05-07 11:42 51.92861 46.63031 10482 ft 313 kts 260°
2026-05-07 11:42 51.92416 46.59582 10161 ft 311 kts 260°
2026-05-07 11:42 51.91978 46.56199 10012 ft 303 kts 260°
2026-05-07 11:42 51.91550 46.52898 9849 ft 295 kts 260°
2026-05-07 11:43 51.91131 46.49685 9486 ft 296 kts 260°
2026-05-07 11:43 51.90709 46.46433 9179 ft 293 kts 260°
2026-05-07 11:43 51.90297 46.43267 8849 ft 287 kts 260°
2026-05-07 11:43 51.89889 46.40149 8531 ft 280 kts 260°
2026-05-07 11:44 51.89489 46.37096 8237 ft 273 kts 261°
2026-05-07 11:44 51.89095 46.34100 7948 ft 269 kts 261°
2026-05-07 11:44 51.88705 46.31131 7662 ft 269 kts 261°
2026-05-07 11:44 51.88315 46.28164 7377 ft 269 kts 261°
2026-05-07 11:45 51.87927 46.25231 7121 ft 270 kts 260°
2026-05-07 11:45 51.87530 46.22228 6802 ft 273 kts 261°
2026-05-07 11:45 51.87133 46.19228 6507 ft 272 kts 260°
2026-05-07 11:45 51.86735 46.16232 6179 ft 273 kts 260°
2026-05-07 11:46 51.86333 46.13225 5850 ft 273 kts 260°
2026-05-07 11:46 51.85931 46.10208 5556 ft 274 kts 260°
2026-05-07 11:46 51.85528 46.07190 5250 ft 273 kts 260°
2026-05-07 11:46 51.85130 46.04259 4913 ft 267 kts 260°
2026-05-07 11:47 51.84701 46.01371 4588 ft 263 kts 250°
2026-05-07 11:47 51.83558 45.99089 4236 ft 260 kts 214°
2026-05-07 11:47 51.81963 45.97828 3895 ft 251 kts 200°
2026-05-07 11:47 51.80345 45.96855 3530 ft 245 kts 200°
2026-05-07 11:48 51.78761 45.95902 3186 ft 241 kts 200°
2026-05-07 11:48 51.77223 45.94960 2804 ft 235 kts 200°
2026-05-07 11:48 51.75745 45.94045 2466 ft 221 kts 200°
2026-05-07 11:48 51.74337 45.93171 2086 ft 211 kts 197°
2026-05-07 11:49 51.72917 45.93111 1690 ft 204 kts 153°
2026-05-07 11:49 51.72023 45.94550 1528 ft 169 kts 104°
2026-05-07 11:49 51.71905 45.96248 1503 ft 143 kts 94°
2026-05-07 11:49 51.71761 45.97765 1482 ft 133 kts 91°
2026-05-07 11:50 51.71695 45.99316 1496 ft 140 kts 89°
2026-05-07 11:50 51.71651 46.00867 1488 ft 141 kts 89°
2026-05-07 11:50 51.71609 46.02456 1494 ft 142 kts 89°
2026-05-07 11:50 51.71572 46.04096 1351 ft 151 kts 89°
2026-05-07 11:51 51.71535 46.05717 1192 ft 142 kts 90°
2026-05-07 11:51 51.71490 46.07282 1000 ft 140 kts 90°
2026-05-07 11:51 51.71459 46.08848 816 ft 138 kts 91°
2026-05-07 11:51 51.71423 46.10390 643 ft 136 kts 95°
2026-05-07 11:52 51.71390 46.11884 525 ft 136 kts 93°
2026-05-07 11:52 51.71353 46.13415 320 ft 139 kts 94°
2026-05-07 11:52 51.71317 46.14986 142 ft 140 kts 94°
2026-05-07 11:52 51.71278 46.16453 104 ft 119 kts 91°
2026-05-07 11:53 51.71254 46.17532 109 ft 70 kts 92°
2026-05-07 11:53 51.71232 46.17921 109 ft 7 kts 81°
2026-05-07 11:53 51.71249 46.17941 109 ft 2 kts
2026-05-07 11:53 51.71258 46.17926 108 ft 0 kts 292°
2026-05-07 11:54 51.71251 46.17772 107 ft 27 kts 267°
2026-05-07 11:54 51.71271 46.17433 107 ft 23 kts 310°
2026-05-07 11:54 51.71397 46.17414 110 ft 17 kts
2026-05-07 11:54 51.71496 46.17420 110 ft 13 kts
2026-05-07 11:55 51.71577 46.17425 110 ft 11 kts
2026-05-07 11:55 51.71625 46.17362 110 ft 5 kts 276°
2026-05-07 11:55 51.71630 46.17205 110 ft 19 kts 272°
2026-05-07 11:55 51.71645 46.17105 108 ft 0 kts 318°